Time,TemperatureF,DewpointF,PressureIn,WindDirection,WindDirectionDegrees,WindSpeedMPH,WindSpeedGustMPH,Humidity,HourlyPrecipIn,Conditions,Clouds,dailyrainin,SoftwareType,DateUTC
2013-10-12 00:06:00,57.3,51.0,30.09,NW,312,5.0,12.0,78,0.00,,,0.00,weatherlink.com 1.10,2013-10-12 04:06:00,
2013-10-12 00:21:00,57.3,51.0,30.09,North,355,2.0,12.0,79,0.00,,,0.00,weatherlink.com 1.10,2013-10-12 04:21:00,
2013-10-12 00:36:00,57.3,51.0,30.08,NE,36,7.0,12.0,79,0.00,,,0.00,weatherlink.com 1.10,2013-10-12 04:36:00,
2013-10-12 00:51:00,57.1,51.0,30.08,NNE,23,7.0,13.0,80,0.00,,,0.00,weatherlink.com 1.10,2013-10-12 04:51:00,
2013-10-12 01:06:00,57.0,51.0,30.08,NE,42,5.0,13.0,80,0.00,,,0.00,weatherlink.com 1.10,2013-10-12 05:06:00,
2013-10-12 01:21:00,56.7,51.0,30.07,NNW,341,6.0,12.0,81,0.00,,,0.00,weatherlink.com 1.10,2013-10-12 05:21:00,
2013-10-12 01:36:00,56.4,51.0,30.07,North,360,1.0,9.0,82,0.00,,,0.00,weatherlink.com 1.10,2013-10-12 05:36:00,
2013-10-12 01:51:00,56.3,51.0,30.07,North,5,4.0,11.0,83,0.00,,,0.00,weatherlink.com 1.10,2013-10-12 05:51:00,
2013-10-12 02:06:00,56.3,52.0,30.07,NNW,329,8.0,11.0,84,0.00,,,0.00,weatherlink.com 1.10,2013-10-12 06:06:00,
2013-10-12 02:21:00,56.4,52.0,30.07,North,5,4.0,10.0,84,0.00,,,0.00,weatherlink.com 1.10,2013-10-12 06:21:00,
2013-10-12 02:36:00,56.2,52.0,30.07,NNW,347,2.0,12.0,85,0.00,,,0.00,weatherlink.com 1.10,2013-10-12 06:36:00,
2013-10-12 02:51:00,55.9,52.0,30.06,NNW,348,4.0,10.0,85,0.00,,,0.00,weatherlink.com 1.10,2013-10-12 06:51:00,
2013-10-12 03:06:00,55.5,51.0,30.06,NE,51,7.0,9.0,86,0.00,,,0.00,weatherlink.com 1.10,2013-10-12 07:06:00,
2013-10-12 03:21:00,55.5,52.0,30.06,NNW,328,1.0,9.0,87,0.00,,,0.00,weatherlink.com 1.10,2013-10-12 07:21:00,
2013-10-12 03:36:00,55.5,52.0,30.07,WNW,303,2.0,9.0,87,0.00,,,0.00,weatherlink.com 1.10,2013-10-12 07:36:00,
2013-10-12 03:51:00,55.3,52.0,30.07,WNW,293,5.0,6.0,87,0.00,,,0.00,weatherlink.com 1.10,2013-10-12 07:51:00,
2013-10-12 04:06:00,55.3,52.0,30.07,West,270,0.0,3.0,88,0.00,,,0.00,weatherlink.com 1.10,2013-10-12 08:06:00,
2013-10-12 04:21:00,55.9,52.0,30.07,ENE,64,0.0,9.0,87,0.00,,,0.00,weatherlink.com 1.10,2013-10-12 08:21:00,
2013-10-12 04:36:00,56.2,52.0,30.07,West,277,0.0,10.0,86,0.00,,,0.00,weatherlink.com 1.10,2013-10-12 08:36:00,
2013-10-12 04:51:00,55.8,52.0,30.08,NNW,348,0.0,4.0,87,0.00,,,0.00,weatherlink.com 1.10,2013-10-12 08:51:00,
2013-10-12 05:06:00,55.5,52.0,30.08,North,355,4.0,6.0,87,0.00,,,0.00,weatherlink.com 1.10,2013-10-12 09:06:00,
2013-10-12 05:21:00,55.5,52.0,30.09,NW,319,1.0,7.0,87,0.00,,,0.00,weatherlink.com 1.10,2013-10-12 09:21:00,
2013-10-12 05:36:00,55.3,52.0,30.08,North,360,1.0,7.0,87,0.00,,,0.00,weatherlink.com 1.10,2013-10-12 09:36:00,
2013-10-12 05:51:00,55.0,52.0,30.09,NE,47,0.0,6.0,88,0.00,,,0.00,weatherlink.com 1.10,2013-10-12 09:51:00,
2013-10-12 06:06:00,55.5,52.0,30.09,NW,326,3.0,8.0,88,0.00,,,0.00,weatherlink.com 1.10,2013-10-12 10:06:00,
2013-10-12 06:21:00,55.8,52.0,30.09,NNE,13,6.0,6.0,88,0.00,,,0.00,weatherlink.com 1.10,2013-10-12 10:21:00,
2013-10-12 06:36:00,55.8,52.0,30.10,NNE,22,0.0,4.0,88,0.00,,,0.00,weatherlink.com 1.10,2013-10-12 10:36:00,
2013-10-12 06:51:00,55.8,53.0,30.10,NW,326,2.0,5.0,89,0.00,,,0.00,weatherlink.com 1.10,2013-10-12 10:51:00,
2013-10-12 07:06:00,56.0,53.0,30.11,NNE,13,1.0,4.0,89,0.00,,,0.00,weatherlink.com 1.10,2013-10-12 11:06:00,
2013-10-12 07:21:00,56.0,53.0,30.11,NNW,345,2.0,4.0,89,0.00,,,0.00,weatherlink.com 1.10,2013-10-12 11:21:00,
2013-10-12 07:36:00,56.0,53.0,30.11,NE,39,0.0,5.0,89,0.00,,,0.00,weatherlink.com 1.10,2013-10-12 11:36:00,
2013-10-12 07:51:00,56.0,53.0,30.11,NE,38,1.0,3.0,89,0.00,,,0.00,weatherlink.com 1.10,2013-10-12 11:51:00,
2013-10-12 08:06:00,56.2,53.0,30.11,NNE,13,0.0,4.0,89,0.00,,,0.00,weatherlink.com 1.10,2013-10-12 12:06:00,
2013-10-12 08:21:00,56.4,53.0,30.12,NNE,19,0.0,4.0,88,0.00,,,0.00,weatherlink.com 1.10,2013-10-12 12:21:00,
2013-10-12 08:37:00,56.6,54.0,30.13,NNE,19,0.0,1.0,89,0.00,,,0.00,weatherlink.com 1.10,2013-10-12 12:37:00,
2013-10-12 08:52:00,56.9,54.0,30.13,NNE,20,0.0,2.0,89,0.00,,,0.00,weatherlink.com 1.10,2013-10-12 12:52:00,
2013-10-12 09:07:00,57.3,54.0,30.14,NNE,20,0.0,1.0,89,0.00,,,0.00,weatherlink.com 1.10,2013-10-12 13:07:00,
2013-10-12 09:22:00,57.4,54.0,30.14,NNE,22,0.0,2.0,87,0.00,,,0.00,weatherlink.com 1.10,2013-10-12 13:22:00,
2013-10-12 09:37:00,57.4,54.0,30.14,NW,323,0.0,3.0,88,0.00,,,0.00,weatherlink.com 1.10,2013-10-12 13:37:00,
2013-10-12 09:52:00,57.8,55.0,30.14,NNW,340,0.0,3.0,89,0.00,,,0.00,weatherlink.com 1.10,2013-10-12 13:52:00,
2013-10-12 10:07:00,58.7,55.0,30.14,North,5,2.0,5.0,86,0.00,,,0.00,weatherlink.com 1.10,2013-10-12 14:07:00,
2013-10-12 10:22:00,59.6,55.0,30.14,North,11,2.0,4.0,84,0.00,,,0.00,weatherlink.com 1.10,2013-10-12 14:22:00,
2013-10-12 10:37:00,59.5,55.0,30.14,ESE,123,2.0,5.0,84,0.00,,,0.00,weatherlink.com 1.10,2013-10-12 14:37:00,
2013-10-12 10:52:00,59.5,55.0,30.14,SE,129,1.0,3.0,85,0.00,,,0.00,weatherlink.com 1.10,2013-10-12 14:52:00,
2013-10-12 11:07:00,59.3,55.0,30.14,SE,129,0.0,3.0,85,0.00,,,0.00,weatherlink.com 1.10,2013-10-12 15:07:00,
2013-10-12 11:22:00,58.7,55.0,30.14,SSE,152,0.0,1.0,87,0.00,,,0.00,weatherlink.com 1.10,2013-10-12 15:22:00,
2013-10-12 11:37:00,59.0,55.0,30.15,East,94,0.0,5.0,86,0.00,,,0.00,weatherlink.com 1.10,2013-10-12 15:37:00,
2013-10-12 11:52:00,59.1,55.0,30.15,NNE,31,1.0,8.0,86,0.00,,,0.00,weatherlink.com 1.10,2013-10-12 15:52:00,
2013-10-12 12:07:00,59.8,55.0,30.15,NE,40,3.0,5.0,85,0.00,,,0.00,weatherlink.com 1.10,2013-10-12 16:07:00,
2013-10-12 12:22:00,60.8,56.0,30.15,NNW,338,2.0,6.0,83,0.00,,,0.00,weatherlink.com 1.10,2013-10-12 16:22:00,
2013-10-12 12:37:00,61.3,57.0,30.14,ENE,78,5.0,6.0,84,0.00,,,0.00,weatherlink.com 1.10,2013-10-12 16:37:00,
2013-10-12 12:52:00,61.4,56.0,30.14,East,84,5.0,8.0,83,0.00,,,0.00,weatherlink.com 1.10,2013-10-12 16:52:00,
2013-10-12 13:08:00,62.2,56.0,30.13,NNW,345,5.0,9.0,81,0.00,,,0.00,weatherlink.com 1.10,2013-10-12 17:08:00,
2013-10-12 13:23:00,61.6,56.0,30.14,NNW,335,2.0,10.0,82,0.00,,,0.00,weatherlink.com 1.10,2013-10-12 17:23:00,
2013-10-12 13:38:00,61.2,56.0,30.14,NE,38,4.0,12.0,83,0.00,,,0.00,weatherlink.com 1.10,2013-10-12 17:38:00,
2013-10-12 13:53:00,61.3,57.0,30.13,NNE,32,2.0,8.0,85,0.00,,,0.00,weatherlink.com 1.10,2013-10-12 17:53:00,
2013-10-12 14:08:00,62.2,57.0,30.12,East,80,3.0,11.0,82,0.00,,,0.00,weatherlink.com 1.10,2013-10-12 18:08:00,
2013-10-12 14:23:00,62.3,57.0,30.12,NNE,15,3.0,9.0,82,0.00,,,0.00,weatherlink.com 1.10,2013-10-12 18:23:00,
2013-10-12 14:38:00,62.0,57.0,30.13,NNE,28,3.0,9.0,83,0.00,,,0.00,weatherlink.com 1.10,2013-10-12 18:38:00,
2013-10-12 14:53:00,61.0,56.0,30.13,NNE,31,3.0,8.0,84,0.00,,,0.00,weatherlink.com 1.10,2013-10-12 18:53:00,
2013-10-12 15:08:00,60.6,56.0,30.13,NW,319,5.0,12.0,85,0.00,,,0.00,weatherlink.com 1.10,2013-10-12 19:08:00,
2013-10-12 15:23:00,60.6,56.0,30.14,NNE,28,8.0,12.0,86,0.00,,,0.00,weatherlink.com 1.10,2013-10-12 19:23:00,
2013-10-12 15:38:00,60.2,56.0,30.14,North,351,4.0,11.0,86,0.00,,,0.00,weatherlink.com 1.10,2013-10-12 19:38:00,
2013-10-12 15:53:00,61.1,57.0,30.14,NNW,346,5.0,7.0,87,0.00,,,0.00,weatherlink.com 1.10,2013-10-12 19:53:00,
2013-10-12 16:08:00,60.9,57.0,30.14,NW,312,3.0,8.0,86,0.00,,,0.00,weatherlink.com 1.10,2013-10-12 20:08:00,
2013-10-12 16:23:00,60.3,56.0,30.14,North,5,2.0,11.0,86,0.00,,,0.00,weatherlink.com 1.10,2013-10-12 20:23:00,
2013-10-12 16:37:00,60.1,56.0,30.14,NNE,19,4.0,8.0,87,0.00,,,0.00,weatherlink.com 1.10,2013-10-12 20:37:00,
2013-10-12 16:53:00,59.9,56.0,30.15,West,281,3.0,7.0,88,0.00,,,0.00,weatherlink.com 1.10,2013-10-12 20:53:00,
2013-10-12 17:08:00,59.9,56.0,30.15,NNE,23,3.0,11.0,88,0.00,,,0.00,weatherlink.com 1.10,2013-10-12 21:08:00,
2013-10-12 17:23:00,59.5,56.0,30.16,NNE,16,2.0,11.0,88,0.00,,,0.00,weatherlink.com 1.10,2013-10-12 21:23:00,
2013-10-12 17:38:00,59.7,56.0,30.16,NW,320,5.0,7.0,88,0.00,,,0.00,weatherlink.com 1.10,2013-10-12 21:38:00,
2013-10-12 17:53:00,59.6,56.0,30.16,North,5,3.0,7.0,89,0.00,,,0.00,weatherlink.com 1.10,2013-10-12 21:53:00,
2013-10-12 18:08:00,59.5,56.0,30.16,North,351,4.0,7.0,88,0.00,,,0.00,weatherlink.com 1.10,2013-10-12 22:08:00,
2013-10-12 18:23:00,59.1,56.0,30.16,North,355,0.0,9.0,89,0.00,,,0.00,weatherlink.com 1.10,2013-10-12 22:23:00,
2013-10-12 18:38:00,59.0,56.0,30.17,NE,48,1.0,7.0,89,0.00,,,0.00,weatherlink.com 1.10,2013-10-12 22:38:00,
2013-10-12 18:53:00,58.7,56.0,30.17,North,355,3.0,6.0,90,0.00,,,0.00,weatherlink.com 1.10,2013-10-12 22:53:00,
2013-10-12 19:08:00,58.6,56.0,30.17,NNE,22,5.0,7.0,90,0.00,,,0.00,weatherlink.com 1.10,2013-10-12 23:08:00,
2013-10-12 19:23:00,58.3,56.0,30.18,NNE,24,3.0,7.0,91,0.00,,,0.00,weatherlink.com 1.10,2013-10-12 23:23:00,
2013-10-12 19:38:00,57.7,55.0,30.18,NNW,342,4.0,7.0,91,0.00,,,0.00,weatherlink.com 1.10,2013-10-12 23:38:00,
2013-10-12 19:53:00,57.1,55.0,30.18,NNE,23,3.0,8.0,92,0.00,,,0.00,weatherlink.com 1.10,2013-10-12 23:53:00,
2013-10-12 20:08:00,56.8,55.0,30.18,North,355,5.0,6.0,92,0.00,,,0.00,weatherlink.com 1.10,2013-10-13 00:08:00,
2013-10-12 20:23:00,56.7,55.0,30.18,NNW,344,4.0,7.0,92,0.00,,,0.00,weatherlink.com 1.10,2013-10-13 00:23:00,
2013-10-12 20:38:00,56.5,54.0,30.19,NNW,329,6.0,6.0,92,0.00,,,0.00,weatherlink.com 1.10,2013-10-13 00:38:00,
2013-10-12 20:53:00,56.2,54.0,30.19,NNE,13,6.0,6.0,93,0.00,,,0.00,weatherlink.com 1.10,2013-10-13 00:53:00,
2013-10-12 21:08:00,56.3,54.0,30.19,NNE,18,3.0,6.0,93,0.00,,,0.00,weatherlink.com 1.10,2013-10-13 01:08:00,
2013-10-12 21:23:00,56.3,54.0,30.19,North,5,3.0,6.0,93,0.00,,,0.00,weatherlink.com 1.10,2013-10-13 01:23:00,
2013-10-12 21:38:00,56.2,54.0,30.19,North,5,4.0,6.0,93,0.00,,,0.00,weatherlink.com 1.10,2013-10-13 01:38:00,
2013-10-12 21:53:00,55.8,54.0,30.19,NNE,19,3.0,4.0,93,0.00,,,0.00,weatherlink.com 1.10,2013-10-13 01:53:00,
2013-10-12 22:08:00,55.5,54.0,30.20,NNE,12,0.0,4.0,94,0.00,,,0.00,weatherlink.com 1.10,2013-10-13 02:08:00,
2013-10-12 22:23:00,55.5,54.0,30.20,NNE,12,0.0,3.0,94,0.00,,,0.00,weatherlink.com 1.10,2013-10-13 02:23:00,
2013-10-12 22:38:00,55.5,54.0,30.20,NW,323,2.0,5.0,94,0.00,,,0.00,weatherlink.com 1.10,2013-10-13 02:38:00,
2013-10-12 22:53:00,55.7,54.0,30.20,NNE,22,0.0,3.0,94,0.00,,,0.00,weatherlink.com 1.10,2013-10-13 02:53:00,
2013-10-12 23:08:00,55.9,54.0,30.20,NNE,32,3.0,3.0,94,0.00,,,0.00,weatherlink.com 1.10,2013-10-13 03:08:00,
2013-10-12 23:23:00,56.5,55.0,30.20,NNW,342,0.0,5.0,94,0.00,,,0.00,weatherlink.com 1.10,2013-10-13 03:23:00,
2013-10-12 23:38:00,56.5,55.0,30.21,NNW,342,0.0,2.0,93,0.00,,,0.00,weatherlink.com 1.10,2013-10-13 03:38:00,
2013-10-12 23:53:00,56.5,55.0,30.21,NNW,342,0.0,2.0,94,0.00,,,0.00,weatherlink.com 1.10,2013-10-13 03:53:00,